Wind_Speed
42 40 39 38 36 36 36 35 36 33 32 29 28 28 28 27 26 25 25 25 26 28 30 33 36 39 43 46 49 50 52 54 53 54 53 55 55 55 55 53 51 49 47 46
43 41 40 39 36 35 35 35 36 35 31 29 30 29 28 27 26 26 26 26 26 27 30 32 35 38 41 45 48 49 50 52 52 54 52 53 53 52 51 51 51 50 48 45
44 41 42 40 37 36 36 35 35 35 32 31 30 29 29 27 26 26 27 27 27 27 29 32 35 37 42 45 47 48 48 50 50 51 53 53 54 53 52 51 50 48 46 44
45 44 43 39 38 37 36 34 34 34 33 32 31 30 29 28 27 26 27 27 28 28 29 31 34 37 41 44 47 48 48 48 50 51 52 52 53 53 52 51 51 48 46 43
45 45 45 39 38 38 36 34 33 33 33 33 32 31 29 29 27 26 26 27 28 29 30 31 33 36 40 43 47 48 47 48 48 49 50 50 50 52 52 50 51 49 47 44
45 46 46 42 40 38 37 34 32 33 32 32 32 31 30 30 28 27 27 27 28 30 31 33 34 35 38 41 45 47 47 49 49 49 48 47 48 49 50 50 50 49 48 44
44 45 45 41 40 38 37 36 34 32 32 32 31 31 30 29 29 28 28 28 28 29 31 33 35 36 37 40 43 46 47 47 48 48 48 47 45 47 49 49 49 48 47 45
43 44 43 41 39 38 37 36 35 33 32 31 30 30 29 29 29 29 28 29 29 29 30 33 35 36 37 39 41 44 47 47 46 47 48 47 46 46 48 48 48 47 46 45
43 42 42 40 39 38 37 36 35 33 32 30 30 29 28 29 29 29 29 30 30 31 31 32 35 37 38 39 41 42 44 46 47 47 47 47 47 46 46 47 47 46 45 44
43 40 39 39 38 37 36 34 34 33 32 31 30 29 29 28 28 28 29 30 30 31 32 33 35 37 38 39 42 42 43 44 46 46 46 46 46 46 47 46 44 44 45 45
41 38 38 37 37 35 34 34 33 32 32 31 29 28 29 29 28 27 28 29 30 30 32 33 35 37 39 39 41 42 43 43 44 45 45 45 46 46 46 46 45 44 43 43
39 37 37 35 35 34 34 33 33 32 31 30 29 29 29 28 28 27 27 28 29 29 30 32 33 36 39 40 41 41 42 43 43 44 45 44 45 45 46 46 44 43 42 42
38 37 36 34 34 34 34 33 33 32 31 30 29 29 28 28 27 27 27 27 28 29 29 30 32 35 37 38 39 40 41 42 42 44 44 45 44 45 46 46 46 44 43 41
37 36 34 34 34 34 33 32 32 31 30 29 28 28 28 28 27 27 27 27 27 27 28 29 31 34 37 37 38 39 39 40 40 41 43 44 44 45 46 46 45 44 43 41
35 34 33 33 33 32 32 31 31 30 29 28 27 27 26 27 27 26 26 26 26 27 27 28 29 32 35 37 37 38 39 39 39 40 41 43 44 45 46 47 46 45 44 43
33 32 32 32 32 31 31 30 30 29 28 27 27 26 25 25 26 26 26 26 26 27 27 28 28 30 33 34 36 37 38 39 39 40 41 42 43 44 45 47 46 46 44 43
31 31 31 31 31 30 29 29 29 28 27 26 26 25 25 24 25 25 25 26 26 26 27 28 29 30 31 32 34 36 37 39 39 40 41 42 42 42 43 45 46 45 44 43
30 30 30 30 30 29 27 27 26 26 25 25 25 24 24 24 23 23 24 24 25 25 26 27 29 29 30 30 32 35 36 38 40 41 41 41 42 42 43 43 43 43 43 42
29 29 29 29 28 27 26 25 25 25 24 24 23 23 23 22 22 22 22 23 23 24 25 26 28 29 29 30 31 33 35 36 38 40 42 42 41 41 41 41 42 41 41 41
28 29 28 27 26 26 25 24 24 24 23 23 22 21 21 20 20 20 20 21 22 23 24 25 27 28 29 29 31 32 33 35 37 38 40 41 42 41 40 41 41 40 40 40
28 27 26 25 25 24 24 24 23 23 22 21 20 20 19 19 19 19 19 19 20 22 22 24 26 28 28 28 29 31 32 32 34 36 37 39 40 40 41 41 40 40 40 39
26 25 24 24 23 23 22 22 21 21 20 19 19 18 17 17 17 17 18 19 20 21 22 23 25 27 27 27 28 29 30 31 32 34 35 36 37 38 38 39 40 40 39 38
25 24 23 22 21 20 20 19 19 18 18 17 17 16 15 16 16 17 17 19 19 20 21 22 24 25 26 26 28 29 30 31 32 33 35 35 35 36 37 38 39 39 38 38
23 22 21 20 19 19 18 18 17 17 17 17 16 16 15 15 15 16 17 18 19 19 20 21 22 23 24 25 27 28 30 31 32 33 34 35 35 35 36 37 38 38 38 37
22 21 20 19 19 18 18 17 17 16 16 16 15 15 14 14 14 15 16 17 18 19 19 20 21 22 23 24 26 27 28 30 32 32 33 35 35 35 35 36 38 38 37 36
20 20 19 19 18 18 17 16 15 15 15 15 15 14 14 14 15 15 16 17 18 19 19 20 21 22 22 23 25 26 27 29 31 31 32 33 34 35 35 35 36 37 36 35
20 19 18 18 17 17 16 15 15 14 14 14 14 15 15 15 15 15 15 16 18 18 19 19 20 21 22 23 24 25 26 27 29 30 31 33 33 34 34 35 35 35 35 34
Wind_Direction
313 312 310 308 305 303 301 299 296 297 297 299 293 291 289 284 278 270 262 256 252 248 241 233 228 224 220 219 217 216 216 218 218 219 219 219 221 224 224 225 226 228 229 232
311 311 309 307 307 303 301 298 296 294 295 295 291 291 289 284 278 272 263 256 250 247 241 235 230 226 221 219 217 216 216 217 219 218 218 219 221 223 223 225 226 228 230 233
309 309 308 307 309 304 301 298 294 293 293 290 289 289 288 282 278 272 263 257 250 245 240 235 231 227 224 222 219 218 217 216 219 219 218 219 221 223 224 225 225 227 228 232
307 307 306 310 307 305 302 298 295 293 290 288 287 287 286 282 276 270 264 258 251 244 239 235 231 228 226 223 220 220 219 218 219 220 220 221 222 223 224 224 226 226 227 229
304 304 307 308 307 306 303 300 296 294 290 286 285 284 282 280 276 270 263 258 252 245 239 235 231 228 226 223 221 220 220 219 219 218 218 220 221 222 224 224 224 226 228 229
302 303 306 309 307 306 303 301 299 295 292 287 283 283 280 276 274 268 262 257 252 246 241 236 232 229 226 223 223 221 220 220 219 218 218 219 220 222 223 223 223 224 227 229
300 301 304 306 304 304 302 302 301 297 292 288 284 282 279 274 270 267 261 256 252 247 242 238 234 230 227 224 224 221 220 221 220 220 219 220 221 222 222 221 223 225 227 229
299 300 304 303 301 301 300 299 299 298 294 289 285 282 278 274 269 265 259 255 251 248 244 238 234 231 228 225 223 221 220 221 221 222 221 221 222 223 223 223 224 226 228 230
297 300 301 299 298 298 297 296 297 296 294 289 283 280 278 275 270 265 259 254 250 246 244 240 236 232 230 227 223 220 220 221 221 221 221 221 221 221 222 224 225 227 227 230
297 299 297 296 296 296 295 294 294 293 292 289 283 278 277 276 272 266 260 255 250 245 243 240 235 232 230 227 223 221 220 220 219 219 219 220 221 221 221 222 224 226 227 228
297 297 294 294 295 295 294 293 292 292 290 287 283 278 276 276 272 265 259 254 250 246 242 239 235 232 230 227 224 221 220 219 220 220 219 219 221 221 222 223 224 225 226 229
296 295 293 294 294 294 293 293 291 290 289 286 283 279 276 275 270 264 259 253 249 247 244 239 235 231 228 226 224 223 222 220 220 221 220 220 219 219 221 222 223 225 226 228
293 293 292 293 293 293 294 293 292 291 289 286 283 279 274 272 268 263 258 253 249 247 244 239 234 229 225 223 223 223 221 220 220 220 221 220 220 219 219 220 221 223 225 227
291 291 291 292 292 292 293 293 292 291 290 286 282 279 275 270 267 261 256 251 249 246 244 239 234 229 225 222 222 222 221 220 220 221 221 220 220 220 219 220 221 222 224 226
290 291 292 292 292 291 291 291 290 290 288 285 281 279 274 269 266 260 255 250 248 245 243 239 234 229 225 223 222 221 221 221 222 221 221 220 220 220 219 220 220 221 222 224
289 290 291 292 292 290 289 289 289 289 287 284 279 277 275 270 265 259 254 249 246 244 241 238 234 229 225 222 221 221 222 222 222 221 220 220 220 220 219 220 219 220 221 222
290 290 290 291 291 290 288 288 288 288 286 283 279 277 276 271 265 258 252 248 246 243 241 237 232 228 224 220 220 221 221 221 222 222 221 218 218 219 219 220 220 220 220 221
291 291 291 291 291 289 286 285 286 287 287 284 280 278 276 271 264 256 251 246 244 241 238 234 230 228 225 222 221 221 221 222 222 221 219 217 218 219 219 219 219 218 218 219
291 291 293 293 290 286 284 284 285 285 286 286 283 279 275 270 262 255 250 245 241 238 235 232 228 226 224 224 222 221 221 222 220 219 218 216 217 218 217 217 217 217 217 218
291 292 293 293 291 287 285 284 284 283 284 285 283 278 274 269 260 254 250 243 238 234 232 230 226 224 223 224 222 221 220 220 219 217 216 215 216 217 217 215 215 216 216 216
292 292 292 291 291 289 287 285 283 281 281 282 281 279 273 266 258 252 248 242 236 233 230 228 225 223 223 223 221 219 217 217 215 213 213 213 214 216 214 213 213 214 214 214
292 292 291 291 290 290 289 285 283 281 280 280 280 278 272 264 256 249 244 239 235 233 232 229 225 222 221 221 218 216 215 214 212 210 210 210 212 211 211 210 210 211 212 213
291 290 291 290 290 290 289 287 284 281 281 280 278 275 270 262 254 247 241 237 236 234 232 227 223 221 220 218 215 215 213 210 209 209 209 209 210 210 209 208 209 210 211 211
289 288 288 289 289 290 289 287 285 283 281 279 276 271 266 260 254 245 238 236 235 234 229 224 221 219 218 216 213 212 212 210 209 210 210 209 209 209 208 208 207 207 208 209
287 287 287 287 288 288 287 285 285 284 280 277 273 270 264 258 253 247 241 238 236 233 227 222 219 216 215 214 211 209 209 208 208 209 209 208 208 207 207 207 207 207 207 209
285 286 286 285 286 286 286 284 283 283 279 274 271 267 263 259 256 251 244 238 234 230 226 222 219 217 215 212 209 206 206 207 207 206 206 205 205 204 205 205 206 206 207 208
283 283 283 284 285 284 283 282 280 279 277 272 270 268 265 262 257 252 244 236 230 226 224 220 215 213 211 209 208 206 205 204 203 203 203 203 202 203 205 204 205 206 206 207
Height
5535 5530 5525 5520 5517 5513 5507 5503 5499 5497 5494 5493 5489 5486 5484 5482 5482 5481 5482 5482 5483 5485 5488 5491 5495 5500 5506 5513 5520 5528 5536 5545 5553 5563 5571 5581 5590 5599 5609 5619 5627 5635 5642 5649
5527 5522 5516 5512 5510 5505 5500 5496 5491 5489 5488 5487 5482 5480 5478 5477 5476 5475 5476 5476 5478 5480 5482 5485 5489 5494 5500 5506 5513 5521 5529 5538 5546 5555 5563 5573 5582 5591 5600 5609 5618 5627 5634 5641
5517 5513 5507 5504 5503 5497 5492 5489 5485 5481 5481 5478 5476 5474 5472 5470 5469 5469 5469 5470 5471 5473 5475 5479 5483 5488 5493 5499 5506 5513 5521 5530 5538 5547 5555 5564 5574 5582 5592 5601 5610 5618 5625 5632
5506 5503 5498 5500 5494 5489 5484 5481 5477 5473 5471 5469 5468 5466 5464 5463 5462 5462 5462 5463 5465 5466 5469 5472 5476 5480 5486 5492 5499 5506 5514 5522 5531 5539 5547 5556 5565 5574 5584 5593 5601 5609 5616 5624
5496 5490 5487 5489 5486 5479 5475 5473 5470 5465 5463 5461 5459 5458 5457 5455 5455 5455 5455 5456 5458 5460 5462 5465 5469 5474 5479 5485 5492 5499 5506 5514 5523 5532 5540 5548 5558 5567 5575 5584 5592 5600 5608 5615
5487 5481 5477 5481 5475 5470 5466 5464 5462 5457 5455 5453 5451 5450 5450 5448 5447 5447 5448 5449 5451 5453 5455 5459 5462 5467 5472 5478 5484 5491 5499 5507 5515 5524 5532 5540 5549 5558 5567 5575 5584 5591 5599 5606
5478 5471 5469 5471 5465 5461 5458 5457 5453 5449 5447 5444 5443 5442 5441 5440 5440 5440 5441 5442 5443 5445 5448 5451 5455 5460 5465 5471 5477 5484 5491 5499 5507 5516 5524 5532 5541 5550 5558 5567 5575 5583 5590 5598
5469 5463 5463 5459 5455 5452 5450 5446 5443 5440 5438 5436 5434 5433 5432 5431 5431 5431 5432 5434 5435 5438 5440 5444 5448 5452 5457 5463 5469 5476 5483 5492 5500 5508 5516 5524 5532 5541 5550 5558 5566 5574 5582 5588
5460 5459 5454 5448 5445 5442 5440 5437 5434 5431 5429 5427 5426 5425 5424 5423 5423 5423 5424 5425 5427 5430 5433 5436 5440 5445 5450 5456 5462 5469 5476 5484 5492 5500 5508 5516 5524 5533 5541 5549 5557 5566 5573 5580
5449 5448 5444 5439 5435 5433 5430 5428 5425 5422 5420 5419 5417 5416 5416 5415 5414 5414 5415 5417 5419 5421 5424 5428 5432 5437 5442 5448 5454 5461 5469 5476 5484 5492 5499 5507 5515 5524 5532 5541 5549 5557 5564 5572
5439 5437 5433 5430 5426 5424 5421 5418 5416 5414 5412 5410 5408 5408 5407 5406 5406 5406 5407 5409 5410 5413 5416 5420 5423 5428 5434 5440 5446 5454 5461 5468 5475 5483 5491 5499 5507 5515 5524 5533 5540 5548 5556 5563
5429 5427 5423 5421 5417 5415 5412 5410 5407 5405 5403 5401 5400 5399 5398 5398 5397 5398 5399 5400 5402 5405 5407 5411 5415 5420 5426 5432 5439 5446 5453 5460 5467 5475 5482 5490 5498 5506 5515 5524 5531 5539 5547 5554
5418 5416 5413 5411 5408 5405 5403 5401 5398 5396 5394 5393 5391 5390 5389 5389 5389 5390 5391 5392 5394 5397 5399 5403 5407 5412 5417 5424 5430 5437 5444 5452 5459 5466 5474 5481 5489 5497 5506 5515 5522 5530 5538 5545
5408 5406 5403 5401 5399 5396 5394 5392 5389 5387 5385 5384 5382 5381 5380 5380 5381 5381 5382 5384 5386 5389 5392 5395 5399 5404 5409 5415 5422 5429 5436 5443 5451 5458 5465 5472 5480 5488 5497 5505 5513 5521 5529 5536
5399 5396 5394 5392 5390 5387 5385 5383 5381 5379 5377 5375 5373 5372 5372 5372 5372 5373 5374 5376 5378 5381 5384 5387 5391 5396 5401 5407 5414 5421 5428 5435 5442 5449 5456 5463 5471 5479 5487 5496 5504 5512 5520 5527
5389 5387 5385 5383 5381 5378 5376 5374 5372 5370 5368 5366 5365 5364 5363 5363 5364 5364 5366 5368 5370 5373 5376 5380 5384 5388 5393 5399 5405 5412 5419 5426 5433 5440 5447 5454 5461 5470 5478 5486 5494 5503 5511 5518
5380 5378 5376 5374 5371 5369 5367 5365 5363 5361 5359 5358 5357 5356 5355 5355 5355 5356 5358 5360 5363 5366 5369 5372 5376 5381 5386 5391 5397 5404 5410 5417 5423 5430 5437 5445 5453 5461 5469 5477 5485 5493 5501 5509
5371 5369 5367 5365 5362 5360 5358 5356 5354 5353 5351 5350 5348 5348 5347 5347 5347 5349 5350 5352 5355 5358 5361 5365 5369 5374 5378 5383 5389 5395 5401 5408 5414 5421 5428 5436 5444 5452 5460 5468 5476 5484 5492 5499
5362 5360 5358 5356 5353 5351 5350 5348 5346 5345 5343 5342 5340 5340 5339 5339 5340 5341 5343 5345 5348 5351 5354 5358 5362 5366 5371 5376 5381 5386 5392 5399 5405 5412 5419 5427 5435 5443 5451 5459 5467 5475 5483 5490
5354 5352 5350 5347 5345 5343 5341 5340 5338 5337 5336 5334 5333 5332 5332 5332 5333 5334 5336 5338 5341 5344 5347 5351 5355 5360 5364 5369 5373 5379 5384 5390 5397 5403 5411 5419 5427 5435 5443 5451 5459 5466 5474 5482
5346 5344 5341 5339 5337 5335 5334 5332 5331 5329 5328 5327 5327 5326 5325 5326 5327 5328 5330 5333 5335 5338 5341 5344 5348 5353 5357 5362 5366 5372 5377 5383 5389 5396 5403 5411 5419 5427 5435 5443 5451 5458 5466 5474
5338 5336 5334 5332 5330 5328 5326 5324 5323 5322 5321 5321 5320 5319 5319 5320 5321 5322 5324 5327 5330 5332 5335 5338 5342 5346 5350 5355 5360 5365 5371 5376 5382 5389 5396 5404 5411 5419 5427 5435 5443 5451 5459 5467
5330 5328 5326 5325 5323 5321 5319 5318 5317 5316 5315 5315 5314 5314 5314 5314 5315 5317 5319 5322 5324 5326 5329 5332 5335 5339 5344 5348 5353 5359 5364 5370 5376 5383 5390 5398 5405 5412 5420 5428 5436 5444 5452 5459
5323 5321 5319 5318 5316 5315 5313 5312 5311 5310 5309 5309 5309 5308 5309 5309 5310 5312 5314 5316 5318 5321 5323 5327 5330 5333 5338 5342 5347 5352 5358 5364 5370 5377 5384 5391 5399 5406 5414 5421 5429 5437 5445 5452
5316 5314 5313 5312 5310 5309 5307 5306 5305 5305 5304 5304 5303 5303 5303 5304 5306 5307 5308 5310 5312 5315 5318 5321 5324 5328 5332 5336 5341 5346 5352 5358 5364 5370 5377 5385 5392 5400 5407 5415 5422 5430 5438 5445
5309 5308 5307 5305 5304 5303 5302 5301 5300 5300 5299 5298 5298 5298 5299 5299 5300 5301 5303 5304 5306 5309 5312 5315 5319 5322 5326 5331 5336 5341 5346 5352 5358 5365 5372 5379 5386 5393 5401 5408 5416 5423 5431 5438
5303 5302 5301 5300 5298 5297 5297 5296 5295 5294 5294 5293 5293 5293 5293 5294 5294 5295 5297 5299 5301 5304 5307 5310 5314 5317 5322 5326 5331 5336 5341 5347 5353 5359 5366 5373 5380 5388 5394 5402 5409 5417 5424 5431